Regional Weather Roundup
Issued by NWS

Home | Current Version | Previous Version | Text Only | Print | Product List | Glossary Off
Versions: 1 2 3 4 5 6 7 8 9 10 11 12 13 14 15 16 17 18 19 20 21 22 23 24 25 26 27 28 29 30 31 32 33 34 35 36 37 38 39 40 41 42 43 44 45 46 47 48 49 50

000
ASUS43 KLMK 052202
RWRKY
KENTUCKY REGIONAL WEATHER ROUNDUP
NATIONAL WEATHER SERVICE LOUISVILLE KY
500 PM EST THU MAR 05 2015

NOTE "FAIR" INDICATES FEW OR NO CLOUDS BELOW 12,000 FEET
WITH NO SIGNIFICANT WEATHER AND/OR OBSTRUCTIONS TO VISIBILITY.

KYZ001>023-026-027-061>063-070>075-052300-
WESTERN AND SOUTH CENTRAL KENTUCKY

CITY           SKY/WX    TMP DP  RH WIND       PRES   REMARKS
PADUCAH        SUNNY     25   6  44 N15       30.52R WCI  13
HENDERSON      SUNNY     21   3  45 NW13      30.53R WCI   9
OWENSBORO      SUNNY     21   7  55 NW14      30.52R WCI   8
HOPKINSVILLE   NOT AVBL
BOWLING GREEN  SUNNY     27  11  51 NW8       30.47R WCI  19
GLASGOW        NOT AVBL
$$

KYZ024-025-028>034-038-045-046-053-052300-
NORTH CENTRAL KENTUCKY

CITY           SKY/WX    TMP DP  RH WIND       PRES   REMARKS
LOUISVILLE/SDF MOSUNNY   28  10  46 N10       30.46R WCI  19
LOUISVILLE/LOU CLOUDY    29  13  51 N5        30.46R WCI  24
FORT KNOX      CLOUDY    24  11  57 N8        30.42R WCI  16
$$

KYZ035>037-039>044-047>052-055>060-089>105-052300-
NORTHEAST KENTUCKY

CITY           SKY/WX    TMP DP  RH WIND       PRES   REMARKS
LEXINGTON      FLURRIES  22  11  62 N6        30.43R WCI  14
COVINGTON      MOSUNNY   24   7  48 N13       30.43R WCI  12
FRANKFORT      CLOUDY    26  12  55 VRB3      30.43R
$$

KYZ054-064>069-076>088-106>120-052300-
SOUTHEAST KENTUCKY

CITY           SKY/WX    TMP DP  RH WIND       PRES   REMARKS
JACKSON        LGT SNOW  19  13  77 NW8       30.37R WCI   9
LONDON         MIX PCPN  20  12  71 N10       30.38R WCI   9
SOMERSET       NOT AVBL
MIDDLESBORO    CLOUDY    25  19  79 N9        30.35R WCI  15
MONTICELLO     FLURRIES  22  16  78 N10       30.45R WCI  11
$$




USA.gov is the U.S. government's official web portal to all federal, state and local government web resources and services.